Location: Les Chemineaux
(47.3024°N, 1.5104°E)
Time: 19:38:49
(UTC+00:00)

Cosmos 1980 Rocket - Pass Details

Date: 19 May 2025
Orbit: 829 x 848 km, 71.0° (Epoch: 22 June)

Event Time Altitude Azimuth Distance (km) Brightness Sun altitude
Rises 22:29:39 0° 327° (NNW) 3,382 6.8 -20.3°
Reaches altitude 10° 22:32:12 10° 321° (NW) 2,445 5.6 -20.4°
Maximum altitude 22:37:26 43° 252° (WSW) 1,161 2.9 -20.7°
Enters shadow 22:39:26 31° 207° (SSW) 1,419 3.0 -20.8°
